Year,Month,Day,Hour,Minute,Value (Times are PST for temperature in C)
2008,05,25,00,00,17.90
2008,05,25,00,01,17.90
2008,05,25,00,02,17.80
2008,05,25,00,03,17.80
2008,05,25,00,04,17.80
2008,05,25,00,05,17.80
2008,05,25,00,06,17.70
2008,05,25,00,07,17.70
2008,05,25,00,08,17.70
2008,05,25,00,09,17.70
2008,05,25,00,10,17.60
2008,05,25,00,11,17.60
2008,05,25,00,12,17.60
2008,05,25,01,02,16.70
2008,05,25,01,03,16.70
2008,05,25,01,04,16.60
2008,05,25,01,05,16.60
2008,05,25,01,06,16.50
2008,05,25,01,07,16.40
2008,05,25,01,08,16.40
2008,05,25,01,09,16.30
2008,05,25,01,10,16.30
2008,05,25,01,11,16.20
2008,05,25,01,12,16.20
2008,05,25,01,13,16.10
2008,05,25,01,14,16.10
2008,05,25,01,15,16.10
2008,05,25,01,16,16.10
2008,05,25,01,17,16.00
2008,05,25,01,18,15.90
2008,05,25,01,19,15.90
2008,05,25,01,20,15.80
2008,05,25,01,21,15.80
2008,05,25,01,22,15.80
2008,05,25,01,23,15.70
2008,05,25,01,24,15.70
2008,05,25,01,25,15.60
2008,05,25,01,26,15.60
2008,05,25,01,27,15.50
2008,05,25,01,28,15.50
2008,05,25,01,29,15.40
2008,05,25,01,30,15.40
2008,05,25,01,31,15.40
2008,05,25,01,32,15.30
2008,05,25,01,33,15.30
2008,05,25,01,34,15.30
2008,05,25,01,35,15.30
2008,05,25,01,36,15.20
2008,05,25,01,37,15.20
2008,05,25,01,38,15.20
2008,05,25,01,39,15.10
2008,05,25,01,40,15.10
2008,05,25,01,41,15.10
2008,05,25,01,42,15.00
2008,05,25,01,43,15.00
2008,05,25,01,44,15.00
2008,05,25,01,45,14.90
2008,05,25,01,46,14.90
2008,05,25,01,47,14.80
2008,05,25,01,48,14.80
2008,05,25,01,49,14.80
2008,05,25,01,50,14.80
2008,05,25,01,51,14.70
2008,05,25,01,52,14.70
2008,05,25,01,53,14.60
2008,05,25,01,54,14.60
2008,05,25,01,55,14.60
2008,05,25,01,56,14.50
2008,05,25,01,57,14.50
2008,05,25,01,58,14.50
2008,05,25,01,59,14.50
2008,05,25,02,00,14.40
2008,05,25,02,01,14.50
2008,05,25,02,02,14.50
2008,05,25,02,03,14.50
2008,05,25,02,04,14.50
2008,05,25,02,05,14.50
2008,05,25,02,06,14.50
2008,05,25,02,07,14.60
2008,05,25,02,08,14.60
2008,05,25,02,09,14.70
2008,05,25,02,10,14.80
2008,05,25,02,11,14.80
2008,05,25,02,12,14.80
2008,05,25,02,13,14.80
2008,05,25,02,14,14.80
2008,05,25,02,15,14.80
2008,05,25,02,16,14.90
2008,05,25,02,17,14.90
2008,05,25,02,18,14.90
2008,05,25,02,19,14.90
2008,05,25,02,20,14.90
2008,05,25,02,21,15.00
2008,05,25,02,22,15.00
2008,05,25,02,23,15.00
2008,05,25,02,24,15.00
2008,05,25,02,25,15.10
2008,05,25,02,26,15.10
2008,05,25,02,27,15.10
2008,05,25,02,28,15.20
2008,05,25,02,29,15.20
2008,05,25,02,30,15.20
2008,05,25,02,31,15.30
2008,05,25,02,32,15.30
2008,05,25,02,33,15.30
2008,05,25,02,34,15.30
2008,05,25,02,35,15.30
2008,05,25,02,36,15.30
2008,05,25,02,37,15.30
2008,05,25,02,38,15.30
2008,05,25,02,39,15.40
2008,05,25,02,40,15.40
2008,05,25,02,41,15.40
2008,05,25,02,42,15.40
2008,05,25,02,43,15.40
2008,05,25,02,44,15.40
2008,05,25,02,45,15.40
2008,05,25,02,46,15.40
2008,05,25,02,47,15.40
2008,05,25,02,48,15.40
2008,05,25,02,49,15.40
2008,05,25,02,50,15.40
2008,05,25,02,51,15.50
2008,05,25,02,52,15.50
2008,05,25,02,53,15.40
2008,05,25,02,54,15.40
2008,05,25,02,55,15.40
2008,05,25,02,56,15.40
2008,05,25,02,57,15.40
2008,05,25,02,58,15.40
2008,05,25,02,59,15.40
2008,05,25,03,00,15.40
2008,05,25,03,01,15.40
2008,05,25,03,02,15.40
2008,05,25,03,03,15.30
2008,05,25,03,04,15.30
2008,05,25,03,05,15.30
2008,05,25,03,06,15.30
2008,05,25,03,07,15.30
2008,05,25,03,08,15.30
2008,05,25,03,09,15.30
2008,05,25,03,10,15.30
2008,05,25,03,11,15.30
2008,05,25,03,12,15.30
2008,05,25,03,13,15.30
2008,05,25,03,14,15.30
2008,05,25,03,15,15.30
2008,05,25,03,16,15.30
2008,05,25,03,17,15.30
2008,05,25,03,18,15.30
2008,05,25,03,19,15.30
2008,05,25,03,20,15.30
2008,05,25,03,21,15.30
2008,05,25,03,22,15.30
2008,05,25,03,23,15.30
2008,05,25,03,24,15.30
2008,05,25,03,25,15.30
2008,05,25,03,26,15.40
2008,05,25,03,27,15.40
2008,05,25,03,28,15.40
2008,05,25,03,29,15.40
2008,05,25,03,30,15.40
2008,05,25,03,31,15.40
2008,05,25,03,32,15.40
2008,05,25,03,33,15.40
2008,05,25,03,34,15.40
2008,05,25,03,35,15.40
2008,05,25,03,36,15.40
2008,05,25,03,37,15.40
2008,05,25,03,38,15.40
2008,05,25,03,39,15.40
2008,05,25,03,40,15.40
2008,05,25,03,41,15.40
2008,05,25,03,42,15.40
2008,05,25,03,43,15.40
2008,05,25,03,44,15.40
2008,05,25,03,45,15.40
2008,05,25,03,46,15.40
2008,05,25,03,47,15.50
2008,05,25,03,48,15.50
2008,05,25,03,49,15.60
2008,05,25,03,50,15.70
2008,05,25,03,51,15.80
2008,05,25,03,52,15.90
2008,05,25,03,53,16.10
2008,05,25,03,54,16.20
2008,05,25,03,55,16.20
2008,05,25,03,56,16.30
2008,05,25,03,57,16.40
2008,05,25,03,58,16.50
2008,05,25,03,59,16.70
2008,05,25,04,00,16.70
2008,05,25,04,01,16.90
2008,05,25,04,02,16.90
2008,05,25,04,03,17.00
2008,05,25,04,04,17.10
2008,05,25,04,05,17.10
2008,05,25,04,06,17.20
2008,05,25,04,07,17.20
2008,05,25,04,08,17.20
2008,05,25,04,09,17.30
2008,05,25,04,10,17.30
2008,05,25,04,11,17.30
2008,05,25,04,12,17.30
2008,05,25,04,13,17.30
2008,05,25,04,14,17.40
2008,05,25,04,15,17.40
2008,05,25,04,16,17.40
2008,05,25,04,17,17.40
2008,05,25,04,18,17.40
2008,05,25,04,19,17.40
2008,05,25,04,20,17.40
2008,05,25,04,21,17.40
2008,05,25,04,22,17.50
2008,05,25,04,23,17.50
2008,05,25,04,24,17.50
2008,05,25,04,25,17.50
2008,05,25,04,26,17.60
2008,05,25,04,27,17.60
2008,05,25,04,28,17.60
2008,05,25,04,29,17.60
2008,05,25,04,30,17.60
2008,05,25,04,31,17.60
2008,05,25,04,32,17.60
2008,05,25,04,33,17.60
2008,05,25,04,34,17.60
2008,05,25,04,35,17.60
2008,05,25,04,36,17.60
2008,05,25,04,37,17.60
2008,05,25,04,38,17.60
2008,05,25,04,39,17.50
2008,05,25,04,40,17.40
2008,05,25,04,41,17.40
2008,05,25,04,42,17.30
2008,05,25,04,43,17.20
2008,05,25,04,44,17.10
2008,05,25,04,45,17.00
2008,05,25,04,46,17.00
2008,05,25,04,47,16.90
2008,05,25,04,48,16.90
2008,05,25,04,49,16.80
2008,05,25,04,50,16.70
2008,05,25,04,51,16.70
2008,05,25,04,52,16.60
2008,05,25,04,53,16.60
2008,05,25,04,54,16.50
2008,05,25,04,55,16.40
2008,05,25,04,56,16.40
2008,05,25,04,57,16.30
2008,05,25,04,58,16.30
2008,05,25,04,59,16.20
2008,05,25,05,00,16.20
2008,05,25,05,01,16.20
2008,05,25,05,02,16.10
2008,05,25,05,03,16.10
2008,05,25,05,04,16.10
2008,05,25,05,05,16.10
2008,05,25,05,06,15.90
2008,05,25,05,07,15.90
2008,05,25,05,08,15.90
2008,05,25,05,09,15.80
2008,05,25,05,10,15.80
2008,05,25,05,11,15.80
2008,05,25,05,12,15.80
2008,05,25,05,13,15.80
2008,05,25,05,14,15.80
2008,05,25,05,15,15.70
2008,05,25,05,16,15.70
2008,05,25,05,17,15.70
2008,05,25,05,18,15.70
2008,05,25,05,19,15.70
2008,05,25,05,20,15.60
2008,05,25,05,21,15.60
2008,05,25,05,22,15.60
2008,05,25,05,23,15.60
2008,05,25,05,24,15.60
2008,05,25,05,25,15.60
2008,05,25,05,26,15.60
2008,05,25,05,27,15.60
2008,05,25,05,28,15.60
2008,05,25,05,29,15.50
2008,05,25,05,30,15.50
2008,05,25,05,31,15.50
2008,05,25,05,32,15.50
2008,05,25,05,33,15.50
2008,05,25,05,34,15.50
2008,05,25,05,35,15.50
2008,05,25,05,36,15.50
2008,05,25,05,37,15.50
2008,05,25,05,38,15.50
2008,05,25,05,39,15.50
2008,05,25,05,40,15.40
2008,05,25,05,41,15.40
2008,05,25,05,42,15.40
2008,05,25,05,43,15.40
2008,05,25,05,44,15.40
2008,05,25,05,45,15.40
2008,05,25,05,46,15.30
2008,05,25,05,47,15.30
2008,05,25,05,48,15.30
2008,05,25,05,49,15.30
2008,05,25,05,50,15.30
2008,05,25,05,51,15.30
2008,05,25,05,52,15.30
2008,05,25,05,53,15.20
2008,05,25,05,54,15.20
2008,05,25,05,55,15.20
2008,05,25,05,56,15.10
2008,05,25,05,57,15.10
2008,05,25,05,58,15.10
2008,05,25,05,59,15.10
2008,05,25,06,00,15.00
2008,05,25,06,01,15.00
2008,05,25,06,02,15.00
2008,05,25,06,03,15.00
2008,05,25,06,04,15.00
2008,05,25,06,05,15.00
2008,05,25,06,06,15.00
2008,05,25,06,07,15.00
2008,05,25,06,08,15.00
2008,05,25,06,09,15.00
2008,05,25,06,10,14.90
2008,05,25,06,11,14.90
2008,05,25,06,12,14.90
2008,05,25,06,13,14.90
2008,05,25,06,14,14.90
2008,05,25,06,15,14.90
2008,05,25,06,16,14.80
2008,05,25,06,17,14.80
2008,05,25,06,18,14.80
2008,05,25,06,19,14.80
2008,05,25,06,20,14.80
2008,05,25,06,21,14.80
2008,05,25,06,22,14.80
2008,05,25,06,23,14.80
2008,05,25,06,24,14.80
2008,05,25,06,25,14.80
2008,05,25,06,26,14.80
2008,05,25,06,27,14.80
2008,05,25,06,28,14.80
2008,05,25,06,29,14.80
2008,05,25,06,30,14.80
2008,05,25,06,31,14.80
2008,05,25,06,32,14.80
2008,05,25,06,33,14.80
2008,05,25,06,34,14.80
2008,05,25,06,35,14.90
2008,05,25,06,36,14.90
2008,05,25,06,37,14.90
2008,05,25,06,38,14.90
2008,05,25,06,39,15.00
2008,05,25,06,40,15.00
2008,05,25,06,41,15.00
2008,05,25,06,42,15.00
2008,05,25,06,43,15.00
2008,05,25,06,44,15.10
2008,05,25,06,45,15.10
2008,05,25,06,46,15.10
2008,05,25,06,47,15.10
2008,05,25,06,48,15.10
2008,05,25,06,49,15.20
2008,05,25,06,50,15.20
2008,05,25,06,51,15.20
2008,05,25,06,52,15.30
2008,05,25,06,53,15.30
2008,05,25,06,54,15.30
2008,05,25,06,55,15.40
2008,05,25,06,56,15.40
2008,05,25,06,57,15.50
2008,05,25,06,58,15.50
2008,05,25,06,59,15.60
2008,05,25,07,00,15.60
2008,05,25,07,01,15.60
2008,05,25,07,02,15.70
2008,05,25,07,03,15.70
2008,05,25,07,04,15.80
2008,05,25,07,05,15.80
2008,05,25,07,06,15.80
2008,05,25,07,07,15.80
2008,05,25,07,08,15.80
2008,05,25,07,09,15.80
2008,05,25,07,10,15.90
2008,05,25,07,11,15.90
2008,05,25,07,12,15.90
2008,05,25,07,13,16.10
2008,05,25,07,14,16.10
2008,05,25,07,15,16.10
2008,05,25,07,16,16.10
2008,05,25,07,17,16.10
2008,05,25,07,18,16.10
2008,05,25,07,19,16.20
2008,05,25,07,20,16.20
2008,05,25,07,21,16.20
2008,05,25,07,22,16.20
2008,05,25,07,23,16.20
2008,05,25,07,24,16.30
2008,05,25,07,25,16.30
2008,05,25,07,26,16.30
2008,05,25,07,27,16.30
2008,05,25,07,28,16.40
2008,05,25,07,29,16.40
2008,05,25,07,30,16.40
2008,05,25,07,31,16.40
2008,05,25,07,32,16.40
2008,05,25,07,33,16.50
2008,05,25,07,34,16.60
2008,05,25,07,35,16.60
2008,05,25,07,36,16.70
2008,05,25,07,37,16.70
2008,05,25,07,38,16.70
2008,05,25,07,39,16.70
2008,05,25,07,40,16.70
2008,05,25,07,41,16.80
2008,05,25,07,42,16.80
2008,05,25,07,43,16.90
2008,05,25,07,44,16.90
2008,05,25,07,45,17.00
2008,05,25,07,46,17.00
2008,05,25,07,47,17.10
2008,05,25,07,48,17.10
2008,05,25,07,49,17.20
2008,05,25,07,50,17.30
2008,05,25,07,51,17.30
2008,05,25,07,52,17.30
2008,05,25,07,53,17.40
2008,05,25,07,54,17.40
2008,05,25,07,55,17.40
2008,05,25,07,56,17.40
2008,05,25,07,57,17.50
2008,05,25,07,58,17.50
2008,05,25,07,59,17.50
2008,05,25,08,00,17.50
2008,05,25,08,01,17.60
2008,05,25,08,02,17.60
2008,05,25,08,03,17.60
2008,05,25,08,04,17.60
2008,05,25,08,05,17.70
2008,05,25,08,06,17.70
2008,05,25,08,07,17.70
2008,05,25,08,08,17.70
2008,05,25,08,09,17.70
2008,05,25,08,10,17.70
2008,05,25,08,11,17.70
2008,05,25,08,12,17.70
2008,05,25,08,13,17.70
2008,05,25,08,14,17.70
2008,05,25,08,15,17.60
2008,05,25,08,16,17.60
2008,05,25,08,17,17.60
2008,05,25,08,18,17.60
2008,05,25,08,19,17.60
2008,05,25,08,20,17.60
2008,05,25,08,21,17.50
2008,05,25,08,22,17.50
2008,05,25,08,23,17.50
2008,05,25,08,24,17.50
2008,05,25,08,25,17.50
2008,05,25,08,26,17.40
2008,05,25,08,27,17.40
2008,05,25,08,28,17.40
2008,05,25,08,29,17.30
2008,05,25,08,30,17.30
2008,05,25,08,31,17.30
2008,05,25,08,32,17.30
2008,05,25,08,33,17.30
2008,05,25,08,34,17.30
2008,05,25,08,35,17.30
2008,05,25,08,36,17.30
2008,05,25,08,37,17.20
2008,05,25,08,38,17.20
2008,05,25,08,39,17.20
2008,05,25,08,40,17.20
2008,05,25,08,41,17.10
2008,05,25,08,42,17.10
2008,05,25,08,43,17.10
2008,05,25,08,44,17.10
2008,05,25,08,45,17.10
2008,05,25,08,46,17.10
2008,05,25,08,47,17.10
2008,05,25,08,48,17.00
2008,05,25,08,49,17.00
2008,05,25,08,50,17.00
2008,05,25,08,51,17.00
2008,05,25,08,52,17.00
2008,05,25,08,53,17.00
2008,05,25,08,54,17.00
2008,05,25,08,55,17.00
2008,05,25,08,56,16.90
2008,05,25,08,57,16.90
2008,05,25,08,58,16.90
2008,05,25,08,59,16.90
2008,05,25,09,00,16.90
2008,05,25,09,01,16.90
2008,05,25,09,02,16.90
2008,05,25,09,03,16.90
2008,05,25,09,04,17.00
2008,05,25,09,05,17.00
2008,05,25,09,06,17.00
2008,05,25,09,07,17.00
2008,05,25,09,08,17.00
2008,05,25,09,09,17.10
2008,05,25,09,10,17.10
2008,05,25,09,11,17.10
2008,05,25,09,12,17.20
2008,05,25,09,13,17.20
2008,05,25,09,14,17.20
2008,05,25,09,15,17.30
2008,05,25,09,16,17.30
2008,05,25,09,17,17.30
2008,05,25,09,18,17.30
2008,05,25,09,19,17.30
2008,05,25,09,20,17.30
2008,05,25,09,21,17.30
2008,05,25,09,22,17.40
2008,05,25,09,23,17.40
2008,05,25,09,24,17.50
2008,05,25,09,25,17.50
2008,05,25,09,26,17.60
2008,05,25,09,27,17.60
2008,05,25,09,28,17.60
2008,05,25,09,29,17.70
2008,05,25,09,30,17.70
2008,05,25,09,31,17.80
2008,05,25,09,32,17.80
2008,05,25,09,33,17.90
2008,05,25,09,34,17.90
2008,05,25,09,35,17.90
2008,05,25,09,36,18.00
2008,05,25,09,37,18.10
2008,05,25,09,38,18.10
2008,05,25,09,39,18.20
2008,05,25,09,40,18.20
2008,05,25,09,41,18.20
2008,05,25,09,42,18.20
2008,05,25,09,43,18.30
2008,05,25,09,44,18.30
2008,05,25,09,45,18.40
2008,05,25,09,46,18.40
2008,05,25,09,47,18.40
2008,05,25,09,48,18.50
2008,05,25,09,49,18.50
2008,05,25,09,50,18.50
2008,05,25,09,51,18.60
2008,05,25,09,52,18.60
2008,05,25,09,53,18.60
2008,05,25,09,54,18.60
2008,05,25,09,55,18.70
2008,05,25,09,56,18.60
2008,05,25,09,57,18.40
2008,05,25,09,58,18.20
2008,05,25,09,59,18.00
2008,05,25,10,00,17.80
2008,05,25,10,01,17.70
2008,05,25,10,02,17.50
2008,05,25,10,03,17.40
2008,05,25,10,04,17.30
2008,05,25,10,05,17.30
2008,05,25,10,06,17.30
2008,05,25,10,07,17.30
2008,05,25,10,08,17.30
2008,05,25,10,09,17.30
2008,05,25,10,10,17.40
2008,05,25,10,11,17.40
2008,05,25,10,12,17.50
2008,05,25,10,13,17.50
2008,05,25,10,14,17.60
2008,05,25,10,15,17.60
2008,05,25,10,16,17.70
2008,05,25,10,17,17.80
2008,05,25,10,18,17.80
2008,05,25,10,19,17.90
2008,05,25,10,20,17.90
2008,05,25,10,21,17.90
2008,05,25,10,22,17.90
2008,05,25,10,23,17.90
2008,05,25,10,24,17.90
2008,05,25,10,25,18.10
2008,05,25,10,26,18.10
2008,05,25,10,27,18.20
2008,05,25,10,28,18.20
2008,05,25,10,29,18.30
2008,05,25,10,30,18.40
2008,05,25,10,31,18.50
2008,05,25,10,32,18.50
2008,05,25,10,33,18.50
2008,05,25,10,34,18.40
2008,05,25,10,35,18.30
2008,05,25,10,36,18.30
2008,05,25,10,37,18.40
2008,05,25,10,38,18.40
2008,05,25,10,39,18.50
2008,05,25,10,40,18.50
2008,05,25,10,41,18.50
2008,05,25,10,42,18.60
2008,05,25,10,43,18.60
2008,05,25,10,44,18.60
2008,05,25,10,45,18.70
2008,05,25,10,46,18.70
2008,05,25,10,47,18.70
2008,05,25,10,48,18.70
2008,05,25,10,49,18.70
2008,05,25,10,50,18.70
2008,05,25,10,51,18.80
2008,05,25,10,52,18.80
2008,05,25,10,53,18.90
2008,05,25,10,54,18.90
2008,05,25,10,55,18.90
2008,05,25,10,56,19.00
2008,05,25,10,57,19.10
2008,05,25,10,58,19.10
2008,05,25,10,59,19.20
2008,05,25,11,00,19.20
2008,05,25,11,01,19.30
2008,05,25,11,02,19.30
2008,05,25,11,03,19.40
2008,05,25,11,04,19.40
2008,05,25,11,05,19.40
2008,05,25,11,06,19.40
2008,05,25,11,07,19.40
2008,05,25,11,08,19.40
2008,05,25,11,09,19.40
2008,05,25,11,10,19.40
2008,05,25,11,11,19.50
2008,05,25,11,12,19.60
2008,05,25,11,13,19.70
2008,05,25,11,14,19.80
2008,05,25,11,15,19.90
2008,05,25,11,16,20.00
2008,05,25,11,17,20.10
2008,05,25,11,18,20.20
2008,05,25,11,19,20.30
2008,05,25,11,20,20.40
2008,05,25,11,21,20.40
2008,05,25,11,22,20.60
2008,05,25,11,23,20.70
2008,05,25,11,24,20.80
2008,05,25,11,25,20.90
2008,05,25,11,26,21.10
2008,05,25,11,27,21.20
2008,05,25,11,28,21.30
2008,05,25,11,29,21.40
2008,05,25,11,30,21.60
2008,05,25,11,31,21.70
2008,05,25,11,32,21.80
2008,05,25,11,33,21.90
2008,05,25,11,34,22.00
2008,05,25,11,35,22.10
2008,05,25,11,36,22.00
2008,05,25,11,37,21.70
2008,05,25,11,38,21.20
2008,05,25,11,39,20.50
2008,05,25,11,40,20.10
2008,05,25,11,41,19.90
2008,05,25,11,42,19.80
2008,05,25,11,43,19.60
2008,05,25,11,44,19.60
2008,05,25,11,45,19.50
2008,05,25,11,46,19.30
2008,05,25,11,47,19.20
2008,05,25,11,48,19.10
2008,05,25,11,49,19.10
2008,05,25,11,50,19.10
2008,05,25,11,51,19.30
2008,05,25,11,52,19.40
2008,05,25,11,53,19.50
2008,05,25,11,54,19.60
2008,05,25,11,55,19.70
2008,05,25,11,56,19.90
2008,05,25,11,57,20.00
2008,05,25,11,58,20.10
2008,05,25,11,59,20.00
2008,05,25,12,00,19.90
2008,05,25,12,01,19.90
2008,05,25,12,02,19.90
2008,05,25,12,03,19.90
2008,05,25,12,04,19.90
2008,05,25,12,05,19.90
2008,05,25,12,06,19.90
2008,05,25,12,07,19.90
2008,05,25,12,08,19.90
2008,05,25,12,09,19.90
2008,05,25,12,10,19.90
2008,05,25,12,11,19.90
2008,05,25,12,12,19.90
2008,05,25,12,13,19.90
2008,05,25,12,14,20.00
2008,05,25,12,15,20.20
2008,05,25,12,16,20.30
2008,05,25,12,17,20.40
2008,05,25,12,18,20.50
2008,05,25,12,19,20.60
2008,05,25,12,20,20.60
2008,05,25,12,21,20.70
2008,05,25,12,22,20.80
2008,05,25,12,23,20.80
2008,05,25,12,24,20.90
2008,05,25,12,25,21.00
2008,05,25,12,26,21.00
2008,05,25,12,27,21.00
2008,05,25,12,28,21.00
2008,05,25,12,29,21.10
2008,05,25,12,30,21.20
2008,05,25,12,31,21.30
2008,05,25,12,32,21.20
2008,05,25,12,33,21.00
2008,05,25,12,34,20.90
2008,05,25,12,35,20.80
2008,05,25,12,36,20.80
2008,05,25,12,37,20.80
2008,05,25,12,38,20.70
2008,05,25,12,39,20.70
2008,05,25,12,40,20.70
2008,05,25,12,41,20.80
2008,05,25,12,42,20.80
2008,05,25,12,43,20.70
2008,05,25,12,44,20.70
2008,05,25,12,45,20.70
2008,05,25,12,46,20.70
2008,05,25,12,47,20.80
2008,05,25,12,48,20.90
2008,05,25,12,49,20.90
2008,05,25,12,50,21.00
2008,05,25,12,51,21.10
2008,05,25,12,52,21.20
2008,05,25,12,53,21.30
2008,05,25,12,54,21.40
2008,05,25,12,55,21.50
2008,05,25,12,56,21.60
2008,05,25,12,57,21.60
2008,05,25,12,58,21.70
2008,05,25,12,59,21.70
2008,05,25,13,00,21.70
2008,05,25,13,01,21.60
2008,05,25,13,02,21.60
2008,05,25,13,03,21.60
2008,05,25,13,04,21.60
2008,05,25,13,05,21.70
2008,05,25,13,06,21.60
2008,05,25,13,07,21.60
2008,05,25,13,08,21.50
2008,05,25,13,09,21.30
2008,05,25,13,10,21.30
2008,05,25,13,11,21.10
2008,05,25,13,12,20.90
2008,05,25,13,13,20.80
2008,05,25,13,14,20.70
2008,05,25,13,15,20.70
2008,05,25,13,16,20.50
2008,05,25,13,17,20.50
2008,05,25,13,18,20.50
2008,05,25,13,19,20.50
2008,05,25,13,20,20.50
2008,05,25,13,21,20.50
2008,05,25,13,22,20.50
2008,05,25,13,23,20.50
2008,05,25,13,24,20.50
2008,05,25,13,25,20.40
2008,05,25,13,26,20.30
2008,05,25,13,27,20.20
2008,05,25,13,28,20.20
2008,05,25,13,29,20.20
2008,05,25,13,30,20.20
2008,05,25,13,31,20.20
2008,05,25,13,32,20.10
2008,05,25,13,33,20.00
2008,05,25,13,34,19.90
2008,05,25,13,35,19.90
2008,05,25,13,36,19.90
2008,05,25,13,37,19.90
2008,05,25,13,38,19.90
2008,05,25,13,39,19.90
2008,05,25,13,40,19.80
2008,05,25,13,41,19.80
2008,05,25,13,42,19.70
2008,05,25,13,43,19.70
2008,05,25,13,44,19.70
2008,05,25,13,45,19.70
2008,05,25,13,46,19.80
2008,05,25,13,47,19.80
2008,05,25,13,48,19.80
2008,05,25,13,49,19.80
2008,05,25,13,50,19.80
2008,05,25,13,51,19.70
2008,05,25,13,52,19.70
2008,05,25,13,53,19.70
2008,05,25,13,54,19.70
2008,05,25,13,55,19.70
2008,05,25,13,56,19.70
2008,05,25,13,57,19.70
2008,05,25,13,58,19.70
2008,05,25,13,59,19.60
2008,05,25,14,00,19.60
2008,05,25,14,01,19.50
2008,05,25,14,02,19.40
2008,05,25,14,03,19.40
2008,05,25,14,04,19.40
2008,05,25,14,05,19.40
2008,05,25,14,06,19.40
2008,05,25,14,07,19.50
2008,05,25,14,08,19.60
2008,05,25,14,09,19.60
2008,05,25,14,10,19.70
2008,05,25,14,11,19.80
2008,05,25,14,12,19.90
2008,05,25,14,13,19.90
2008,05,25,14,14,19.90
2008,05,25,14,15,19.90
2008,05,25,14,16,19.80
2008,05,25,14,17,19.70
2008,05,25,14,18,19.60
2008,05,25,14,19,19.50
2008,05,25,14,20,19.50
2008,05,25,14,21,19.60
2008,05,25,14,22,19.60
2008,05,25,14,23,19.70
2008,05,25,14,24,19.70
2008,05,25,14,25,19.70
2008,05,25,14,26,19.80
2008,05,25,14,27,19.80
2008,05,25,14,28,19.80
2008,05,25,14,29,19.90
2008,05,25,14,30,19.90
2008,05,25,14,31,19.90
2008,05,25,14,32,19.90
2008,05,25,14,33,19.80
2008,05,25,14,34,19.70
2008,05,25,14,35,19.80
2008,05,25,14,36,19.80
2008,05,25,14,37,19.80
2008,05,25,14,38,19.70
2008,05,25,14,39,19.70
2008,05,25,14,40,19.70
2008,05,25,14,41,19.80
2008,05,25,14,42,19.70
2008,05,25,14,43,19.60
2008,05,25,14,44,19.60
2008,05,25,14,45,19.60
2008,05,25,14,46,19.60
2008,05,25,14,47,19.60
2008,05,25,14,48,19.60
2008,05,25,14,49,19.70
2008,05,25,14,50,19.80
2008,05,25,14,51,19.90
2008,05,25,14,52,19.90
2008,05,25,14,53,20.00
2008,05,25,14,54,20.10
2008,05,25,14,55,20.20
2008,05,25,14,56,20.20
2008,05,25,14,57,20.20
2008,05,25,14,58,20.20
2008,05,25,14,59,20.20
2008,05,25,15,00,20.30
2008,05,25,15,01,20.30
2008,05,25,15,02,20.30
2008,05,25,15,03,20.30
2008,05,25,15,04,20.30
2008,05,25,15,05,20.30
2008,05,25,15,06,20.20
2008,05,25,15,07,20.20
2008,05,25,15,08,20.20
2008,05,25,15,09,20.20
2008,05,25,15,10,20.20
2008,05,25,15,11,20.20
2008,05,25,15,12,20.20
2008,05,25,15,13,20.20
2008,05,25,15,14,20.20
2008,05,25,15,15,20.20
2008,05,25,15,16,20.20
2008,05,25,15,17,20.20
2008,05,25,15,18,20.20
2008,05,25,15,19,20.20
2008,05,25,15,20,20.30
2008,05,25,15,21,20.30
2008,05,25,15,22,20.30
2008,05,25,15,23,20.30
2008,05,25,15,24,20.30
2008,05,25,15,25,20.20
2008,05,25,15,26,20.20
2008,05,25,15,27,20.20
2008,05,25,15,28,20.30
2008,05,25,15,29,20.30
2008,05,25,15,30,20.40
2008,05,25,15,31,20.50
2008,05,25,15,32,20.50
2008,05,25,15,33,20.60
2008,05,25,15,34,20.70
2008,05,25,15,35,20.80
2008,05,25,15,36,20.80
2008,05,25,15,37,20.90
2008,05,25,15,38,21.00
2008,05,25,15,39,21.10
2008,05,25,15,40,21.10
2008,05,25,15,41,21.20
2008,05,25,15,42,21.20
2008,05,25,15,43,21.20
2008,05,25,15,44,21.30
2008,05,25,15,45,21.30
2008,05,25,15,46,21.30
2008,05,25,15,47,21.30
2008,05,25,15,48,21.30
2008,05,25,15,49,21.30
2008,05,25,15,50,21.30
2008,05,25,15,51,21.30
2008,05,25,15,52,21.30
2008,05,25,15,53,21.30
2008,05,25,15,54,21.40
2008,05,25,15,55,21.40
2008,05,25,15,56,21.60
2008,05,25,15,57,21.60
2008,05,25,15,58,21.60
2008,05,25,15,59,21.60
2008,05,25,16,00,21.60
2008,05,25,16,01,21.60
2008,05,25,16,02,21.60
2008,05,25,16,03,21.60
2008,05,25,16,04,21.60
2008,05,25,16,05,21.60
2008,05,25,16,06,21.70
2008,05,25,16,07,21.70
2008,05,25,16,08,21.70
2008,05,25,16,09,21.80
2008,05,25,16,10,21.80
2008,05,25,16,11,21.90
2008,05,25,16,12,21.90
2008,05,25,16,13,22.00
2008,05,25,16,14,22.10
2008,05,25,16,15,22.20
2008,05,25,16,16,22.20
2008,05,25,16,17,22.30
2008,05,25,16,18,22.40
2008,05,25,16,19,22.40
2008,05,25,16,20,22.30
2008,05,25,16,21,22.30
2008,05,25,16,22,22.10
2008,05,25,16,23,22.00
2008,05,25,16,24,22.00
2008,05,25,16,25,22.00
2008,05,25,16,26,21.90
2008,05,25,16,27,21.90
2008,05,25,16,28,21.90
2008,05,25,16,29,21.90
2008,05,25,16,30,21.90
2008,05,25,16,31,21.90
2008,05,25,16,32,22.00
2008,05,25,16,33,22.00
2008,05,25,16,34,22.00
2008,05,25,16,35,22.10
2008,05,25,16,36,22.10
2008,05,25,16,37,22.10
2008,05,25,16,38,22.20
2008,05,25,16,39,22.20
2008,05,25,16,40,22.20
2008,05,25,16,41,22.20
2008,05,25,16,42,22.10
2008,05,25,16,43,22.10
2008,05,25,16,44,22.10
2008,05,25,16,45,22.00
2008,05,25,16,46,22.00
2008,05,25,16,47,21.90
2008,05,25,16,48,21.80
2008,05,25,16,49,21.70
2008,05,25,16,50,21.70
2008,05,25,16,51,21.70
2008,05,25,16,52,21.70
2008,05,25,16,53,21.70
2008,05,25,16,54,21.70
2008,05,25,16,55,21.70
2008,05,25,16,56,21.70
2008,05,25,16,57,21.70
2008,05,25,16,58,21.60
2008,05,25,16,59,21.60
2008,05,25,17,00,21.60
2008,05,25,17,01,21.60
2008,05,25,17,02,21.60
2008,05,25,17,03,21.60
2008,05,25,17,04,21.60
2008,05,25,17,05,21.60
2008,05,25,17,06,21.70
2008,05,25,17,07,21.70
2008,05,25,17,08,21.90
2008,05,25,17,09,21.90
2008,05,25,17,10,22.00
2008,05,25,17,11,22.00
2008,05,25,17,12,22.00
2008,05,25,17,13,22.10
2008,05,25,17,14,22.00
2008,05,25,17,15,22.00
2008,05,25,17,16,22.00
2008,05,25,17,17,22.00
2008,05,25,17,18,22.00
2008,05,25,17,19,22.00
2008,05,25,17,20,22.00
2008,05,25,17,21,22.00
2008,05,25,17,22,22.00
2008,05,25,17,23,21.90
2008,05,25,17,24,21.90
2008,05,25,17,25,22.00
2008,05,25,17,26,22.00
2008,05,25,17,27,22.00
2008,05,25,17,28,22.00
2008,05,25,17,29,22.00
2008,05,25,17,30,22.00
2008,05,25,17,31,22.00
2008,05,25,17,32,22.00
2008,05,25,17,33,22.00
2008,05,25,17,34,22.00
2008,05,25,17,35,22.00
2008,05,25,17,36,22.10
2008,05,25,17,37,22.10
2008,05,25,17,38,22.20
2008,05,25,17,39,22.30
2008,05,25,17,40,22.30
2008,05,25,17,41,22.40
2008,05,25,17,42,22.40
2008,05,25,17,43,22.50
2008,05,25,17,44,22.50
2008,05,25,17,45,22.60
2008,05,25,17,46,22.60
2008,05,25,17,47,22.70
2008,05,25,17,48,22.90
2008,05,25,17,49,22.90
2008,05,25,17,50,23.10
2008,05,25,17,51,23.20
2008,05,25,17,52,23.30
2008,05,25,17,53,23.40
2008,05,25,17,54,23.60
2008,05,25,17,55,23.70
2008,05,25,17,56,23.90
2008,05,25,17,57,24.00
2008,05,25,17,58,24.10
2008,05,25,17,59,24.10
2008,05,25,18,00,24.10
2008,05,25,18,01,24.00
2008,05,25,18,02,23.80
2008,05,25,18,03,23.70
2008,05,25,18,04,23.70
2008,05,25,18,05,23.40
2008,05,25,18,06,23.10
2008,05,25,18,07,22.90
2008,05,25,18,08,22.70